Location: Oberwangen
(47.4286°N, 8.9679°E)
Time: 05:54:58
(UTC+00:00)

Cosmos 1607 - Pass Details

Date: 17 October 2021
Orbit: 918 x 984 km, 65.0° (Epoch: 30 November)

Event Time Altitude Azimuth Distance (km) Brightness Sun altitude
Rises 19:45:16 0° 307° (NW) 3,643 8.0 -32.8°
Reaches altitude 10° 19:49:48 10° 277° (W) 2,673 7.0 -33.5°
Maximum altitude 19:51:49 12° 258° (WSW) 2,540 6.7 -33.8°
Drops below altitude 10° 19:53:50 10° 239° (WSW) 2,651 6.6 -34.1°
Enters shadow 19:58:12 - 209° (SSW) 3,546 7.0 -34.8°
